Estación Meteorológica Peña el Pijo (Robertgarden) [ 07/15/20 06:47:06 CEST ]

Fecha Hora Presion(HPa) Temp (°C) Humedad % Rocio (°C) Viento ( m/s) Direccion Lluvia 1Hora(mm) Lluvia 24H(mm) LLuvia Total(mm)
2020-Mar-30 01:09:17 1004.600 - - - - N     39.88
2020-Mar-30 02:09:15 1004.200 - - - - N     39.88
2020-Mar-30 03:09:30 1003.600 - - - - N     39.88
2020-Mar-30 04:11:03 1003.100 - - - - N     39.88
2020-Mar-30 05:09:29 1002.500 - - - - N     39.88
2020-Mar-30 06:09:27 1001.900 - - - - N     39.88
2020-Mar-30 07:09:19 1001.400 - - - - N     39.88
2020-Mar-30 08:08:55 1001.600 - - - - N     39.88
2020-Mar-30 09:09:18 1001.800 - - - - N     39.88
2020-Mar-30 10:08:51 1001.900 - - - - N     39.88
2020-Mar-30 11:09:12 1001.600 - - - - N     39.88
2020-Mar-30 12:08:55 1001.100 - - - - N     39.88
2020-Mar-30 13:09:06 1000.400 - - - - N     39.88
2020-Mar-30 14:09:33 1000.000 - - - - N     39.88
2020-Mar-30 15:09:12 999.500 - - - - N     39.88
2020-Mar-30 16:09:10 998.900 - - - - N     39.88
2020-Mar-30 17:09:18 998.400 - - - - N     39.88
2020-Mar-30 18:08:58 998.300 - - - - N     39.88
2020-Mar-30 19:09:11 997.900 - - - - N     39.88
2020-Mar-30 20:09:05 997.400 - - - - N     39.88
2020-Mar-30 21:09:17 997.600 - - - - N     39.88
2020-Mar-30 22:08:43 998.000 - - - - N     39.88
2020-Mar-30 23:08:47 998.100 - - - - N     39.88

Temperatura Máxima:    Temperatura Mínima:
Presión Máxima:1004.600 Hpa    Presión Mínima:997.400 Hpa


Volver